カタログに戻る

MAQSAT B

運用中科学HEO
NORAD 25024·PAYLOAD·🇪🇺 EU

打ち上げ Oct 30, 1997 から Guiana Space Centre

Loading…

次のパス (今後24時間)

TLE

最新Source: Space-Track

元期: Sep 14, 2026, 14:04 UTC

1 25024U 97066B   26257.58644508 -.00000019  00000-0  47936-3 0  9996
2 25024   7.8281 290.7213 6522529 248.4327 344.2991  3.08960228325804

AllMySatでMAQSAT Bをリアルタイム追跡

Download on the App Store